Regional Weather Roundup
Issued by NWS

Current Version | Previous Version | Text Only | Print | Product List | Glossary On
Versions: 1 2 3 4 5 6 7 8 9 10 11 12 13 14 15 16 17 18 19 20 21 22 23 24 25 26 27 28 29 30 31 32 33 34 35 36 37 38 39 40 41 42 43 44 45 46 47 48 49 50
000
ASUS43 KOAX 171310
RWRNE

WEATHER ROUNDUP FOR NEBRASKA
NATIONAL WEATHER SERVICE OMAHA NE
800 AM CDT TUE MAY 17 2022

NOTES: SATELLITE DATA IS BEING USED TO AUGMENT CLOUD COVER ABOVE
       12000 FEET.
       "FAIR" INDICATES FEW OR NO CLOUDS BELOW 12,000 FEET WITH NO
       SIGNIFICANT WEATHER AND/OR OBSTRUCTIONS TO VISIBILITY.


NEZ001>004-019>022-054>056-171400-
NEBRASKA PANHANDLE

CITY           SKY/WX    TMP DP  RH WIND       PRES   REMARKS
SCOTTSBLUFF    SUNNY     54  46  74 NW9       29.88S
ALLIANCE       MOSUNNY   50  46  86 W5        29.87S
CHADRON        SUNNY     54  49  83 CALM      29.87R
GORDON         MOSUNNY   56  50  79 W3        29.86R
KIMBALL        MOSUNNY   50  44  79 NW10      29.92R
SIDNEY         MOSUNNY   52  47  83 NW9       29.85S
$$

NEZ057>060-069>072-079>082-171400-
SOUTHWEST NEBRASKA

CITY           SKY/WX    TMP DP  RH WIND       PRES   REMARKS
NORTH PLATTE   CLOUDY    63  53  70 S7        29.84R
IMPERIAL       MOSUNNY   63  52  67 S9G21     29.81R
LEXINGTON      PTSUNNY   62  55  76 S15G21    29.83S
MCCOOK         MOSUNNY   62  56  80 S15       29.82F
OGALLALA       PTSUNNY   59  55  85 N5        29.85R
$$

NEZ005>010-023>029-035>040-094-171400-
NORTH CENTRAL NEBRASKA

CITY           SKY/WX    TMP DP  RH WIND       PRES   REMARKS
VALENTINE      MOSUNNY   64  51  62 E5        29.83R
AINSWORTH      MOSUNNY   62  51  67 SE7       29.83S
BROKEN BOW     PTSUNNY   65  53  65 S14       29.83R
O`NEILL        MOSUNNY   59  53  79 E12G17    29.87S
ORD            MOSUNNY   63  53  70 S3        29.83R
THEDFORD       PTSUNNY   59  53  79 CALM      29.86S
$$

NEZ041-046>049-061>064-073>077-083>087-171400-
SOUTH CENTRAL NEBRASKA

CITY           SKY/WX    TMP DP  RH WIND       PRES   REMARKS
GRAND ISLAND   MOSUNNY   67  55  65 S10       29.85R
AURORA         MOSUNNY   66  55  66 S14       29.86S
HASTINGS       SUNNY     65  55  70 S13G23    29.85R
HEBRON         MOSUNNY   65  52  63 S10       29.88S
HOLDREGE       MOSUNNY   62  54  74 S20G26    29.84S
KEARNEY        MOSUNNY   65  56  72 S23       29.84R
YORK           MOSUNNY   64  54  68 S12       29.86F
$$

NEZ011>018-030>034-042>045-171400-
NORTHEAST NEBRASKA

CITY           SKY/WX    TMP DP  RH WIND       PRES   REMARKS
NORFOLK        PTSUNNY   65  52  62 SE10      29.87F
ALBION         MOSUNNY   65  53  65 SE9       29.86S
BLAIR          MOSUNNY   66  51  59 SE9       29.91S
COLUMBUS       PTSUNNY   67  52  58 S9        29.88R
FREMONT        MOSUNNY   67  54  62 SE8       29.89F
TEKAMAH        MOSUNNY   66  51  58 E12       29.90F
WAYNE          PTSUNNY   61  45  56 E12       29.92R
$$

NEZ050>053-065>068-078-088>093-171400-
SOUTHEAST NEBRASKA

CITY           SKY/WX    TMP DP  RH WIND       PRES   REMARKS
LINCOLN        SUNNY     68  54  60 S8        29.89R
OMAHA EPPLEY   PTSUNNY   67  53  61 SE8       29.91F
BEATRICE       MOSUNNY   66  52  60 S16G22    29.87F
FALLS CITY     SUNNY     67  55  65 SE7       29.91F
NEBRASKA CITY  SUNNY     66  53  61 S7        29.92R
PLATTSMOUTH    SUNNY     65  54  66 SE8       29.91F
$$

NEZ044-045-051>053-067-171400-
OMAHA AREA

CITY           SKY/WX    TMP DP  RH WIND       PRES   REMARKS
OMAHA EPPLEY   PTSUNNY   67  53  61 SE8       29.91F
BLAIR          MOSUNNY   66  51  59 SE9       29.91S
FREMONT        MOSUNNY   67  54  62 SE8       29.89F
MILLARD        MOSUNNY   66  53  64 SE6       29.91S
OFFUTT AFB     SUNNY     68  52  56 SE8       29.93F
PLATTSMOUTH    SUNNY     65  54  66 SE8       29.91F
WAHOO          SUNNY     62  54  73 E8        29.88F
$$



USA.gov is the U.S. government's official web portal to all federal, state and local government web resources and services.